Forum


Ask a question

No. FLOSS Question Date
Views
Answers
1 OpenFOAM Faulty mobile download application? 2021-01-09 07:12:14.335900 38 3
2 OpenFOAM Incorrect lift co-efficients with buoyantBoussinesqPimpleFoam 2020-12-28 07:14:52.246656 91 4
3 OpenFOAM MPI parallel run issue for RBF motion solver in foam extend 4.0 2020-12-09 08:56:18.424466 98 2
4 OpenFOAM Openfoam cannot find a single face in the mesh which uses vertices 2020-12-02 16:42:03.926873 97 1
5 OpenFOAM Decreasing the value of y+ 2020-11-29 11:34:07.125783 112 1
6 OpenFOAM Obtaining csv data from xy plot in Paraview 2020-11-05 13:06:17.962619 137 1
7 OpenFOAM 2d pressure swirl atomizer using vof 2020-11-03 17:37:17.735673 212 8
8 OpenFOAM How to create ZeroThicknessWall in SnappyHexMesh? Also Can I use toposet (or splitmesh) to create zone for adding momentum source in buoyantBoussinesqFoams? 2020-10-29 12:43:31.890430 171 4
9 OpenFOAM Difference between foam and algorithm in openfoam 2020-10-29 07:48:12.297067 149 1
10 OpenFOAM Radial Basis Function (RBF) mesh motion solver for pitching motion 2020-10-28 17:35:49.862215 172 1
11 OpenFOAM Types of dynamic mesh motion solver for pitching airfoil 2020-10-28 15:58:19.216544 187 1
12 OpenFOAM AMR to capture shocks 2020-10-24 13:20:43.707589 176 2
13 OpenFOAM Non-Dimensional Contour Plots 2020-10-23 14:01:06.296716 156 3
14 OpenFOAM Problem before Instaling OPENFOAM 2020-09-19 12:46:45.788734 252 2
15 OpenFOAM Large eddy simulation 2020-08-12 05:34:28.148779 299 1
16 OpenFOAM Regarding error in new expression syntax in openfoam 1912 2020-07-15 16:04:36.767775 309 1
17 OpenFOAM How to update supply temperature on boundary based on the measured temperature on another boundary patch in OpenFOAM? 2020-07-03 13:26:43.962960 346 1
18 OpenFOAM PostProcess for OpenFOAM1606+ 2020-06-16 12:37:39.980929 361 1
19 OpenFOAM Mesh generation using blockMesh utility 2020-03-02 11:13:02.251839 515 10
20 OpenFOAM Convergence problem in steady state simulation of centrifugal fan in openfoam 2019-11-22 07:55:27.815884 913 1
21 OpenFOAM Where to add new field while using dsmcfoam? 2019-11-22 04:17:40.010364 661 3
22 OpenFOAM Error: Pcorr goes to nan. (Diverging) 2019-09-12 16:37:05.219232 552 3
23 OpenFOAM Help me choose MFEM vs deal_ii 2019-08-29 07:35:13.851320 516 2
24 OpenFOAM Choosing appropriate boundary conditions for turbulent quantities 2019-08-13 01:54:04.383335 557 1
25 OpenFOAM Multiple AMI, decreasing time step. 2019-07-15 09:42:15.003499 618 1
26 OpenFOAM Inlet Velocity 2019-06-28 12:53:09.638190 638 4
27 OpenFOAM No creation of processed files even after running. 2019-02-06 15:56:59.781942 674 1
28 OpenFOAM Choosing exact boundary conditions 2018-12-18 04:31:26.729700 864 1
29 OpenFOAM Regarding Proposal 2018-12-17 05:59:28.228096 701 1
30 OpenFOAM Query regarding heat flux boundary condition in OpenFOAM 2018-12-16 12:40:09.657563 695 1
31 OpenFOAM Heat flux boundary condition in OpenFOAM 2018-12-14 19:44:13.938906 1898 1
32 OpenFOAM Boundary condition at inlet 2018-11-10 18:46:57.000000 915 2
33 OpenFOAM Foam::error::printStack(Foam::Ostream&) at ??:? 2018-09-27 06:00:30.000000 2386 1
34 OpenFOAM Continuity error cannot be removed by adjusting the outflow. 2018-09-19 07:52:53.000000 2223 1
35 OpenFOAM Convergence in Open Foam Simulation 2018-07-13 13:10:12.000000 826 1
36 OpenFOAM Salome bentpipe to OpenFOAM 2018-07-01 21:39:30.000000 860 1
37 OpenFOAM Using multiInteraction type patchInteractionModel 2018-05-16 06:46:43.000000 934 1
38 OpenFOAM Why Initial residual is not equal to the final residual obtained from the previous iteration in case of fvDOM radiation solver? 2018-03-07 06:08:09.000000 1258 1
39 OpenFOAM Looking for Solver for Three Phase Heat Transfer with phase change for Cryogenic System 2017-11-29 05:15:20.000000 983 1
40 OpenFOAM Resource persons for OPENFOAM Software. 2017-11-22 09:29:39.000000 936 1
41 OpenFOAM diffusivity directional variables 2017-08-30 12:50:18.000000 1120 1
42 OpenFOAM change of volume inside pipe 2017-08-11 11:55:39.000000 1042 3
43 OpenFOAM OpenFOAM Issue with Porous Media and Buoyancy 2017-08-02 07:11:23.000000 7571 1
44 OpenFOAM vertical loading in interfoam 2017-07-11 15:10:27.000000 1001 1
45 OpenFOAM Convergence while using icoFoam 2017-07-06 09:39:26.000000 1138 1
46 OpenFOAM Simulation Of Flow over cylinder with forward splitter plate 2017-07-03 15:49:32.000000 1011 1
47 OpenFOAM OpenFOAM-1.6.x Installation Error 2017-06-07 10:18:39.000000 1065 1
48 OpenFOAM Dynamic Moving Mesh 2017-05-20 12:08:53.000000 996 1
49 OpenFOAM How to Create Baffles in Geometry 2017-05-17 10:17:39.000000 2819 1
50 OpenFOAM How to create a internal gate? 2017-04-25 11:30:22.000000 1389 1
51 OpenFOAM Cannot find flow at bottom surface_slump test 2017-04-25 11:17:15.000000 1076 4
52 OpenFOAM plotting at a definite point 2017-04-14 14:01:59.000000 1147 1
53 OpenFOAM getting time-average flow fields within certain time interval 2017-04-09 06:48:05.000000 1761 1
54 OpenFOAM plotting skin friction coefficient 2017-04-03 04:28:55.000000 2333 1
55 OpenFOAM laminar separation bubble 2017-04-02 08:04:30.000000 947 1
56 OpenFOAM SnappyHexMesh Tutorial 2017-04-01 06:01:29.000000 1415 1
57 OpenFOAM pressure plot in paraFoam 2017-03-27 01:22:03.000000 1995 1
58 OpenFOAM post-processing in paraview 2017-03-10 11:24:48.000000 1495 1
59 OpenFOAM How to find/call each individual cell in a computational domain 2017-03-08 13:50:24.000000 2935 3
60 OpenFOAM multiPhaseEulerFoam case running issue.. 2017-01-17 17:47:23.000000 1464 1
61 OpenFOAM Basic queries regarding cad, mesh and sim 2017-01-16 08:39:10.000000 1086 2
62 OpenFOAM post-processing problem 2016-11-23 13:36:35.000000 1378 1
63 OpenFOAM problem in results 2016-11-21 07:10:46.000000 1108 2
64 OpenFOAM openfoam to firefoam throuh paraview? 2016-11-01 15:07:10.000000 1679 3
65 OpenFOAM No vortex shedding 2016-10-31 05:55:03.000000 1140 1
66 OpenFOAM paraview tools 2016-10-21 05:07:48.000000 1208 1
67 OpenFOAM error while running a solver 2016-10-13 18:09:34.000000 5749 1
68 OpenFOAM SurfaceTracking 2016-10-06 12:32:53.000000 1177 1
69 OpenFOAM boundary condition 2016-09-26 17:04:35.000000 1053 1
70 OpenFOAM plotting the residuals 2016-08-23 14:45:56.000000 2273 1
71 OpenFOAM plotting in paraview 2016-08-16 09:47:55.000000 1104 2
72 OpenFOAM co-efficient of drag and lift 2016-08-03 10:15:57.000000 1303 4
73 OpenFOAM opemFoam 2016-08-02 10:02:33.000000 1266 2
74 OpenFOAM PROBLEM 2016-07-21 04:44:36.000000 1275 1
75 OpenFOAM blockmeshdict file 2016-06-23 05:50:12.000000 1296 1
76 OpenFOAM Writing blockMeshDict file 2016-06-14 04:06:00.000000 1323 1
77 OpenFOAM object inspector menu in paraview 2016-05-25 10:04:12.000000 1519 1
78 OpenFOAM TROUBLE IN SIMULATION 2016-05-15 04:19:14.000000 1554 2
79 OpenFOAM Simulation of Euler-lagrangian bubble using OpenFOAM 2016-05-11 12:28:45.000000 1994 2
80 OpenFOAM OPENFOAM IN WINDOWS 2016-05-10 08:35:05.000000 1678 1
81 OpenFOAM How to plot a graph in Open foam 2016-04-24 17:18:48.000000 2220 1
82 OpenFOAM Error in Turbulence Solver 2016-03-18 18:16:37.000000 6966 6
83 OpenFOAM Simulation error (delta T is decreasing while the iterations are being carried out) 2016-03-12 19:12:05.000000 6048 5
84 OpenFOAM charger making sparking like noise 2015-08-31 13:33:10.000000 1323 1